Time,TemperatureF,DewpointF,PressureIn,WindDirection,WindDirectionDegrees,WindSpeedMPH,WindSpeedGustMPH,Humidity,HourlyPrecipIn,Conditions,Clouds,dailyrainin,SolarRadiationWatts/m^2,SoftwareType,DateUTC
2013-02-26 00:00:00,29.5,25.5,30.08,NE,35,3.0,3.0,85,0.00,,,0.00,0,Wunderground v.1.15,2013-02-26 08:00:00,
2013-02-26 00:10:00,29.2,25.3,30.08,NE,35,0.0,0.0,85,0.00,,,0.00,0,Wunderground v.1.15,2013-02-26 08:10:00,
2013-02-26 00:20:00,29.5,25.5,30.08,North,350,1.0,1.0,85,0.00,,,0.00,0,Wunderground v.1.15,2013-02-26 08:20:00,
2013-02-26 00:30:00,29.4,25.4,30.08,NNE,22,0.0,0.0,85,0.00,,,0.00,0,Wunderground v.1.15,2013-02-26 08:30:00,
2013-02-26 00:40:00,29.0,25.1,30.08,NNE,28,2.0,2.0,85,0.00,,,0.00,0,Wunderground v.1.15,2013-02-26 08:40:00,
2013-02-26 00:50:00,28.9,25.0,30.08,North,9,1.0,1.0,85,0.00,,,0.00,0,Wunderground v.1.15,2013-02-26 08:50:00,
2013-02-26 01:05:00,29.0,24.8,30.08,North,0,1.0,1.0,84,0.00,,,0.00,0,Wunderground v.1.15,2013-02-26 09:05:00,
2013-02-26 01:10:00,29.0,24.8,30.09,North,5,4.0,4.0,84,0.00,,,0.00,0,Wunderground v.1.15,2013-02-26 09:10:00,
2013-02-26 01:20:00,28.9,24.7,30.08,NNW,347,5.0,5.0,84,0.00,,,0.00,0,Wunderground v.1.15,2013-02-26 09:20:00,
2013-02-26 01:30:00,29.3,24.8,30.08,NW,316,3.0,7.0,83,0.00,,,0.00,0,Wunderground v.1.15,2013-02-26 09:30:00,
2013-02-26 01:40:00,29.0,24.5,30.09,West,267,2.0,6.0,83,0.00,,,0.00,0,Wunderground v.1.15,2013-02-26 09:40:00,
2013-02-26 01:50:00,29.1,24.6,30.09,West,262,7.0,7.0,83,0.00,,,0.00,0,Wunderground v.1.15,2013-02-26 09:50:00,
2013-02-26 02:01:00,28.7,24.2,30.09,West,263,3.0,3.0,83,0.00,,,0.00,0,Wunderground v.1.15,2013-02-26 10:01:00,
2013-02-26 02:10:00,28.9,23.8,30.08,SW,233,6.0,10.0,81,0.00,,,0.00,0,Wunderground v.1.15,2013-02-26 10:10:00,
2013-02-26 02:20:00,29.5,23.8,30.08,SW,236,7.0,7.0,79,0.00,,,0.00,0,Wunderground v.1.15,2013-02-26 10:20:00,
2013-02-26 02:30:00,29.8,23.5,30.08,South,169,0.0,8.0,77,0.00,,,0.00,0,Wunderground v.1.15,2013-02-26 10:30:00,
2013-02-26 02:40:00,29.2,23.5,30.08,SSE,162,1.0,1.0,79,0.00,,,0.00,0,Wunderground v.1.15,2013-02-26 10:40:00,
2013-02-26 02:50:00,29.1,23.4,30.08,WNW,301,0.0,0.0,79,0.00,,,0.00,0,Wunderground v.1.15,2013-02-26 10:50:00,
2013-02-26 03:01:00,29.6,23.6,30.08,WSW,249,1.0,1.0,78,0.00,,,0.00,0,Wunderground v.1.15,2013-02-26 11:01:00,
2013-02-26 03:10:00,29.9,23.6,30.08,West,260,0.0,3.0,77,0.00,,,0.00,0,Wunderground v.1.15,2013-02-26 11:10:00,
2013-02-26 03:20:00,30.0,23.7,30.08,WSW,248,4.0,4.0,77,0.00,,,0.00,0,Wunderground v.1.15,2013-02-26 11:20:00,
2013-02-26 03:30:00,30.2,23.5,30.08,SW,236,2.0,2.0,76,0.00,,,0.00,0,Wunderground v.1.15,2013-02-26 11:30:00,
2013-02-26 03:40:00,30.0,23.4,30.08,SW,235,1.0,1.0,76,0.00,,,0.00,0,Wunderground v.1.15,2013-02-26 11:40:00,
2013-02-26 03:50:00,29.1,23.1,30.08,West,265,0.0,1.0,78,0.00,,,0.00,0,Wunderground v.1.15,2013-02-26 11:50:00,
2013-02-26 04:01:00,28.7,22.7,30.08,South,174,0.0,0.0,78,0.00,,,0.00,0,Wunderground v.1.15,2013-02-26 12:01:00,
2013-02-26 04:10:00,28.8,22.5,30.08,South,174,1.0,1.0,77,0.00,,,0.00,0,Wunderground v.1.15,2013-02-26 12:10:00,
2013-02-26 04:20:00,28.2,22.2,30.08,South,174,0.0,0.0,78,0.00,,,0.00,0,Wunderground v.1.15,2013-02-26 12:20:00,
2013-02-26 04:30:00,27.3,21.9,30.08,South,175,0.0,0.0,80,0.00,,,0.00,0,Wunderground v.1.15,2013-02-26 12:30:00,
2013-02-26 04:40:00,26.9,21.8,30.08,South,174,0.0,0.0,81,0.00,,,0.00,0,Wunderground v.1.15,2013-02-26 12:40:00,
2013-02-26 04:50:00,26.1,21.4,30.08,South,175,0.0,0.0,82,0.00,,,0.00,0,Wunderground v.1.15,2013-02-26 12:50:00,
2013-02-26 05:00:00,25.6,21.4,30.08,South,174,0.0,0.0,84,0.00,,,0.00,0,Wunderground v.1.15,2013-02-26 13:00:00,
2013-02-26 05:10:00,25.3,21.1,30.08,South,175,0.0,0.0,84,0.00,,,0.00,0,Wunderground v.1.15,2013-02-26 13:10:00,
2013-02-26 05:20:00,24.7,20.8,30.08,South,176,2.0,2.0,85,0.00,,,0.00,0,Wunderground v.1.15,2013-02-26 13:20:00,
2013-02-26 05:31:00,24.3,20.7,30.08,South,176,0.0,0.0,86,0.00,,,0.00,0,Wunderground v.1.15,2013-02-26 13:31:00,
2013-02-26 05:40:00,23.9,20.6,30.09,South,176,2.0,2.0,87,0.00,,,0.00,0,Wunderground v.1.15,2013-02-26 13:40:00,
2013-02-26 05:50:00,23.8,20.5,30.09,South,176,0.0,2.0,87,0.00,,,0.00,0,Wunderground v.1.15,2013-02-26 13:50:00,
2013-02-26 06:00:00,23.4,20.4,30.09,South,176,0.0,0.0,88,0.00,,,0.00,0,Wunderground v.1.15,2013-02-26 14:00:00,
2013-02-26 06:10:00,23.3,20.3,30.09,South,176,0.0,0.0,88,0.00,,,0.00,0,Wunderground v.1.15,2013-02-26 14:10:00,
2013-02-26 06:20:00,22.8,19.8,30.09,South,176,0.0,0.0,88,0.00,,,0.00,0,Wunderground v.1.15,2013-02-26 14:20:00,
2013-02-26 06:30:00,22.0,19.5,30.09,South,176,0.0,0.0,90,0.00,,,0.00,0,Wunderground v.1.15,2013-02-26 14:30:00,
2013-02-26 06:41:00,21.3,18.8,30.09,South,176,0.0,0.0,90,0.00,,,0.00,0,Wunderground v.1.15,2013-02-26 14:41:00,
2013-02-26 06:50:00,21.0,18.8,30.09,South,176,0.0,0.0,91,0.00,,,0.00,0,Wunderground v.1.15,2013-02-26 14:50:00,
2013-02-26 07:05:00,21.0,19.0,30.09,South,176,0.0,0.0,92,0.00,,,0.00,0,Wunderground v.1.15,2013-02-26 15:05:00,
2013-02-26 07:10:00,20.9,18.7,30.10,South,176,0.0,0.0,91,0.00,,,0.00,0,Wunderground v.1.15,2013-02-26 15:10:00,
2013-02-26 07:20:00,21.2,19.0,30.10,South,176,0.0,0.0,91,0.00,,,0.00,0,Wunderground v.1.15,2013-02-26 15:20:00,
2013-02-26 07:30:00,22.0,19.5,30.10,South,176,0.0,0.0,90,0.00,,,0.00,0,Wunderground v.1.15,2013-02-26 15:30:00,
2013-02-26 07:40:00,22.7,19.9,30.10,South,176,0.0,0.0,89,0.00,,,0.00,0,Wunderground v.1.15,2013-02-26 15:40:00,
2013-02-26 07:50:00,23.4,19.8,30.10,South,176,0.0,0.0,86,0.00,,,0.00,0,Wunderground v.1.15,2013-02-26 15:50:00,
2013-02-26 08:00:00,23.7,19.9,30.10,South,176,0.0,0.0,85,0.00,,,0.00,0,Wunderground v.1.15,2013-02-26 16:00:00,
2013-02-26 08:10:00,25.3,21.1,30.10,South,176,0.0,0.0,84,0.00,,,0.00,0,Wunderground v.1.15,2013-02-26 16:10:00,
2013-02-26 08:20:00,28.1,22.4,30.10,South,176,0.0,0.0,79,0.00,,,0.00,0,Wunderground v.1.15,2013-02-26 16:20:00,
2013-02-26 08:30:00,28.9,22.6,30.11,South,176,0.0,0.0,77,0.00,,,0.00,0,Wunderground v.1.15,2013-02-26 16:30:00,
2013-02-26 08:40:00,28.7,21.5,30.11,WNW,296,3.0,3.0,74,0.00,,,0.00,0,Wunderground v.1.15,2013-02-26 16:40:00,
2013-02-26 08:50:00,29.9,22.3,30.11,West,275,0.0,0.0,73,0.00,,,0.00,0,Wunderground v.1.15,2013-02-26 16:50:00,
2013-02-26 09:00:00,32.4,23.7,30.11,West,275,0.0,0.0,70,0.00,,,0.00,0,Wunderground v.1.15,2013-02-26 17:00:00,
2013-02-26 09:10:00,33.1,23.3,30.10,West,275,1.0,1.0,67,0.00,,,0.00,0,Wunderground v.1.15,2013-02-26 17:10:00,
2013-02-26 09:20:00,34.0,24.2,30.10,West,275,0.0,0.0,67,0.00,,,0.00,0,Wunderground v.1.15,2013-02-26 17:20:00,
2013-02-26 09:30:00,35.1,24.1,30.10,West,267,0.0,0.0,64,0.00,,,0.00,0,Wunderground v.1.15,2013-02-26 17:30:00,
2013-02-26 09:40:00,35.2,23.5,30.10,West,265,0.0,0.0,62,0.00,,,0.00,0,Wunderground v.1.15,2013-02-26 17:40:00,
2013-02-26 09:50:00,35.8,24.0,30.10,SW,218,0.0,0.0,62,0.00,,,0.00,0,Wunderground v.1.15,2013-02-26 17:50:00,
2013-02-26 10:01:00,36.5,24.3,30.09,East,100,2.0,2.0,61,0.00,,,0.00,0,Wunderground v.1.15,2013-02-26 18:01:00,
2013-02-26 10:10:00,36.0,25.0,30.08,ENE,64,6.0,6.0,64,0.00,,,0.00,0,Wunderground v.1.15,2013-02-26 18:10:00,
2013-02-26 10:20:00,36.1,25.5,30.08,NNE,32,4.0,5.0,65,0.00,,,0.00,0,Wunderground v.1.15,2013-02-26 18:20:00,
2013-02-26 10:30:00,36.1,25.1,30.08,ENE,62,4.0,4.0,64,0.00,,,0.00,0,Wunderground v.1.15,2013-02-26 18:30:00,
2013-02-26 10:40:00,36.1,25.1,30.07,ENE,63,3.0,3.0,64,0.00,,,0.00,0,Wunderground v.1.15,2013-02-26 18:40:00,
2013-02-26 10:50:00,36.7,23.7,30.07,ENE,67,3.0,3.0,59,0.00,,,0.00,0,Wunderground v.1.15,2013-02-26 18:50:00,
2013-02-26 11:00:00,37.8,24.3,30.06,ENE,64,5.0,5.0,58,0.00,,,0.00,0,Wunderground v.1.15,2013-02-26 19:00:00,
2013-02-26 11:10:00,39.6,25.2,30.06,ENE,75,1.0,1.0,56,0.00,,,0.00,0,Wunderground v.1.15,2013-02-26 19:10:00,
2013-02-26 11:20:00,39.6,25.6,30.06,ESE,102,1.0,1.0,57,0.00,,,0.00,0,Wunderground v.1.15,2013-02-26 19:20:00,
2013-02-26 11:30:00,40.0,25.6,30.06,NNE,31,1.0,1.0,56,0.00,,,0.00,0,Wunderground v.1.15,2013-02-26 19:30:00,
2013-02-26 11:40:00,40.6,24.8,30.06,North,5,3.0,3.0,53,0.00,,,0.00,0,Wunderground v.1.15,2013-02-26 19:40:00,
2013-02-26 11:50:00,40.9,23.7,30.06,North,1,1.0,1.0,50,0.00,,,0.00,0,Wunderground v.1.15,2013-02-26 19:50:00,
2013-02-26 12:00:00,41.0,22.8,30.05,West,263,1.0,1.0,48,0.00,,,0.00,0,Wunderground v.1.15,2013-02-26 20:00:00,
2013-02-26 12:10:00,42.1,23.3,30.05,NNW,348,2.0,2.0,47,0.00,,,0.00,0,Wunderground v.1.15,2013-02-26 20:10:00,
2013-02-26 12:20:00,42.5,22.1,30.05,North,8,0.0,0.0,44,0.00,,,0.00,0,Wunderground v.1.15,2013-02-26 20:20:00,
2013-02-26 12:30:00,43.4,21.8,30.05,North,8,0.0,0.0,42,0.00,,,0.00,0,Wunderground v.1.15,2013-02-26 20:30:00,
2013-02-26 12:40:00,43.3,21.7,30.05,North,6,4.0,4.0,42,0.00,,,0.00,0,Wunderground v.1.15,2013-02-26 20:40:00,
2013-02-26 12:50:00,43.8,21.0,30.04,North,0,0.0,0.0,40,0.00,,,0.00,0,Wunderground v.1.15,2013-02-26 20:50:00,
2013-02-26 13:00:00,44.7,21.2,30.04,West,272,4.0,4.0,39,0.00,,,0.00,0,Wunderground v.1.15,2013-02-26 21:00:00,
2013-02-26 13:10:00,44.4,20.3,30.04,WSW,245,4.0,4.0,38,0.00,,,0.00,0,Wunderground v.1.15,2013-02-26 21:10:00,
2013-02-26 13:20:00,44.5,21.6,30.04,WSW,250,2.0,2.0,40,0.00,,,0.00,0,Wunderground v.1.15,2013-02-26 21:20:00,
2013-02-26 13:30:00,45.1,20.3,30.04,West,264,4.0,4.0,37,0.00,,,0.00,0,Wunderground v.1.15,2013-02-26 21:30:00,
2013-02-26 13:40:00,45.4,21.2,30.04,WSW,237,0.0,0.0,38,0.00,,,0.00,0,Wunderground v.1.15,2013-02-26 21:40:00,
2013-02-26 13:50:00,47.1,21.5,30.04,WSW,238,0.0,0.0,36,0.00,,,0.00,0,Wunderground v.1.15,2013-02-26 21:50:00,
2013-02-26 14:00:00,46.5,20.9,30.04,East,84,2.0,2.0,36,0.00,,,0.00,0,Wunderground v.1.15,2013-02-26 22:00:00,
2013-02-26 14:10:00,46.4,20.2,30.03,SE,136,4.0,4.0,35,0.00,,,0.00,0,Wunderground v.1.15,2013-02-26 22:10:00,
2013-02-26 14:20:00,46.8,21.2,30.02,SE,140,2.0,2.0,36,0.00,,,0.00,0,Wunderground v.1.15,2013-02-26 22:20:00,
2013-02-26 14:30:00,46.6,20.4,30.02,East,97,4.0,4.0,35,0.00,,,0.00,0,Wunderground v.1.15,2013-02-26 22:30:00,
2013-02-26 14:40:00,46.4,21.5,30.02,NE,40,0.0,0.0,37,0.00,,,0.00,0,Wunderground v.1.15,2013-02-26 22:40:00,
2013-02-26 14:50:00,47.0,20.7,30.02,ENE,72,0.0,0.0,35,0.00,,,0.00,0,Wunderground v.1.15,2013-02-26 22:50:00,
2013-02-26 15:05:00,47.1,20.1,30.02,ENE,75,0.0,0.0,34,0.00,,,0.00,0,Wunderground v.1.15,2013-02-26 23:05:00,
2013-02-26 15:10:00,47.3,20.3,30.01,ENE,75,0.0,0.0,34,0.00,,,0.00,0,Wunderground v.1.15,2013-02-26 23:10:00,
2013-02-26 15:20:00,47.5,21.2,30.02,ENE,75,1.0,1.0,35,0.00,,,0.00,0,Wunderground v.1.15,2013-02-26 23:20:00,
2013-02-26 15:30:00,47.1,21.5,30.02,NNE,14,3.0,3.0,36,0.00,,,0.00,0,Wunderground v.1.15,2013-02-26 23:30:00,
2013-02-26 15:40:00,46.8,22.5,30.02,NW,315,4.0,4.0,38,0.00,,,0.00,0,Wunderground v.1.15,2013-02-26 23:40:00,
2013-02-26 15:50:00,46.5,20.9,30.02,West,260,1.0,3.0,36,0.00,,,0.00,0,Wunderground v.1.15,2013-02-26 23:50:00,
2013-02-26 16:00:00,46.3,20.8,30.02,NW,322,3.0,3.0,36,0.00,,,0.00,0,Wunderground v.1.15,2013-02-27 00:00:00,
2013-02-26 16:10:00,46.4,20.9,30.02,NNW,343,1.0,1.0,36,0.00,,,0.00,0,Wunderground v.1.15,2013-02-27 00:10:00,
2013-02-26 16:20:00,46.1,21.9,30.02,West,264,2.0,2.0,38,0.00,,,0.00,0,Wunderground v.1.15,2013-02-27 00:20:00,
2013-02-26 16:35:00,46.2,22.0,30.02,West,264,1.0,1.0,38,0.00,,,0.00,0,Wunderground v.1.15,2013-02-27 00:35:00,
2013-02-26 16:40:00,46.3,22.7,30.01,West,263,3.0,3.0,39,0.00,,,0.00,0,Wunderground v.1.15,2013-02-27 00:40:00,
2013-02-26 16:50:00,47.2,22.2,30.01,West,264,0.0,0.0,37,0.00,,,0.00,0,Wunderground v.1.15,2013-02-27 00:50:00,
2013-02-26 17:00:00,47.6,22.6,30.02,West,264,0.0,0.0,37,0.00,,,0.00,0,Wunderground v.1.15,2013-02-27 01:00:00,
2013-02-26 17:10:00,47.3,22.3,30.01,West,263,0.0,0.0,37,0.00,,,0.00,0,Wunderground v.1.15,2013-02-27 01:10:00,
2013-02-26 17:20:00,46.7,22.4,30.01,West,264,0.0,0.0,38,0.00,,,0.00,0,Wunderground v.1.15,2013-02-27 01:20:00,
2013-02-26 17:30:00,45.7,22.7,30.01,West,264,0.0,0.0,40,0.00,,,0.00,0,Wunderground v.1.15,2013-02-27 01:30:00,
2013-02-26 17:40:00,44.5,22.2,30.01,West,264,0.0,0.0,41,0.00,,,0.00,0,Wunderground v.1.15,2013-02-27 01:40:00,
2013-02-26 17:50:00,44.0,21.8,30.01,West,264,0.0,0.0,41,0.00,,,0.00,0,Wunderground v.1.15,2013-02-27 01:50:00,
2013-02-26 18:00:00,43.0,22.0,30.01,West,263,4.0,4.0,43,0.00,,,0.00,0,Wunderground v.1.15,2013-02-27 02:00:00,
2013-02-26 18:10:00,40.9,22.2,30.01,West,263,0.0,0.0,47,0.00,,,0.00,0,Wunderground v.1.15,2013-02-27 02:10:00,
2013-02-26 18:21:00,39.3,22.2,30.01,WSW,253,3.0,3.0,50,0.00,,,0.00,0,Wunderground v.1.15,2013-02-27 02:21:00,
2013-02-26 18:30:00,39.8,22.2,30.01,WSW,253,1.0,1.0,49,0.00,,,0.00,0,Wunderground v.1.15,2013-02-27 02:30:00,
2013-02-26 18:40:00,38.6,24.2,30.01,WSW,238,2.0,2.0,56,0.00,,,0.00,0,Wunderground v.1.15,2013-02-27 02:40:00,
2013-02-26 18:50:00,37.7,23.0,30.01,WSW,238,0.0,0.0,55,0.00,,,0.00,0,Wunderground v.1.15,2013-02-27 02:50:00,
2013-02-26 19:01:00,35.9,23.0,30.02,WSW,250,0.0,0.0,59,0.00,,,0.00,0,Wunderground v.1.15,2013-02-27 03:01:00,
2013-02-26 19:10:00,36.0,25.0,30.01,West,268,3.0,3.0,64,0.00,,,0.00,0,Wunderground v.1.15,2013-02-27 03:10:00,
2013-02-26 19:20:00,36.2,24.0,30.01,WSW,258,3.0,3.0,61,0.00,,,0.00,0,Wunderground v.1.15,2013-02-27 03:20:00,
2013-02-26 19:30:00,35.9,23.7,30.01,NW,312,0.0,0.0,61,0.00,,,0.00,0,Wunderground v.1.15,2013-02-27 03:30:00,
2013-02-26 19:40:00,35.2,24.2,30.01,West,262,0.0,3.0,64,0.00,,,0.00,0,Wunderground v.1.15,2013-02-27 03:40:00,
2013-02-26 19:50:00,35.1,24.1,30.02,West,262,0.0,0.0,64,0.00,,,0.00,0,Wunderground v.1.15,2013-02-27 03:50:00,
2013-02-26 20:00:00,35.1,24.5,30.02,West,266,1.0,1.0,65,0.00,,,0.00,0,Wunderground v.1.15,2013-02-27 04:00:00,
2013-02-26 20:10:00,36.6,24.8,30.02,West,272,2.0,2.0,62,0.00,,,0.00,0,Wunderground v.1.15,2013-02-27 04:10:00,
2013-02-26 20:20:00,35.3,25.1,30.02,West,274,2.0,2.0,66,0.00,,,0.00,0,Wunderground v.1.15,2013-02-27 04:20:00,
2013-02-26 20:30:00,36.8,26.1,30.02,NNW,333,3.0,3.0,65,0.00,,,0.00,0,Wunderground v.1.15,2013-02-27 04:30:00,
2013-02-26 20:40:00,37.2,26.5,30.03,SSE,167,8.0,8.0,65,0.00,,,0.00,0,Wunderground v.1.15,2013-02-27 04:40:00,
2013-02-26 20:50:00,36.9,26.2,30.02,SW,233,7.0,7.0,65,0.00,,,0.00,0,Wunderground v.1.15,2013-02-27 04:50:00,
2013-02-26 21:00:00,38.7,26.4,30.02,SSW,192,2.0,2.0,61,0.00,,,0.00,0,Wunderground v.1.15,2013-02-27 05:00:00,
2013-02-26 21:05:00,38.3,26.0,30.02,South,191,3.0,3.0,61,0.00,,,0.00,0,Wunderground v.1.15,2013-02-27 05:05:00,
2013-02-26 21:10:00,38.5,25.8,30.01,SSW,192,2.0,2.0,60,0.00,,,0.00,0,Wunderground v.1.15,2013-02-27 05:10:00,
2013-02-26 21:15:00,37.9,26.0,30.02,SSW,199,4.0,4.0,62,0.00,,,0.00,0,Wunderground v.1.15,2013-02-27 05:15:00,
2013-02-26 21:20:00,37.5,25.7,30.02,SW,222,1.0,1.0,62,0.00,,,0.00,0,Wunderground v.1.15,2013-02-27 05:20:00,
2013-02-26 21:30:00,36.5,25.8,30.02,ESE,109,0.0,0.0,65,0.00,,,0.00,0,Wunderground v.1.15,2013-02-27 05:30:00,
2013-02-26 21:40:00,36.1,25.5,30.02,ESE,102,0.0,0.0,65,0.00,,,0.00,0,Wunderground v.1.15,2013-02-27 05:40:00,
2013-02-26 21:50:00,36.7,24.9,30.02,East,91,2.0,2.0,62,0.00,,,0.00,0,Wunderground v.1.15,2013-02-27 05:50:00,
2013-02-26 22:00:00,36.2,25.2,30.02,ESE,110,3.0,3.0,64,0.00,,,0.00,0,Wunderground v.1.15,2013-02-27 06:00:00,
2013-02-26 22:10:00,36.1,25.1,30.02,East,101,0.0,0.0,64,0.00,,,0.00,0,Wunderground v.1.15,2013-02-27 06:10:00,
2013-02-26 22:20:00,36.6,24.8,30.03,ESE,103,2.0,2.0,62,0.00,,,0.00,0,Wunderground v.1.15,2013-02-27 06:20:00,
2013-02-26 22:31:00,34.5,24.7,30.03,WSW,253,1.0,1.0,67,0.00,,,0.00,0,Wunderground v.1.15,2013-02-27 06:31:00,
2013-02-26 22:40:00,33.5,24.8,30.03,NNW,345,3.0,3.0,70,0.00,,,0.00,0,Wunderground v.1.15,2013-02-27 06:40:00,
2013-02-26 22:50:00,32.6,24.6,30.03,NNW,345,0.0,0.0,72,0.00,,,0.00,0,Wunderground v.1.15,2013-02-27 06:50:00,
2013-02-26 23:00:00,31.7,24.4,30.03,NNW,344,2.0,2.0,74,0.00,,,0.00,0,Wunderground v.1.15,2013-02-27 07:00:00,
2013-02-26 23:10:00,30.4,24.1,30.03,NNW,342,0.0,2.0,77,0.00,,,0.00,0,Wunderground v.1.15,2013-02-27 07:10:00,
2013-02-26 23:20:00,30.1,23.8,30.03,NW,322,0.0,0.0,77,0.00,,,0.00,0,Wunderground v.1.15,2013-02-27 07:20:00,
2013-02-26 23:30:00,29.5,23.5,30.03,WSW,257,0.0,0.0,78,0.00,,,0.00,0,Wunderground v.1.15,2013-02-27 07:30:00,
2013-02-26 23:40:00,29.9,23.6,30.03,WSW,258,0.0,3.0,77,0.00,,,0.00,0,Wunderground v.1.15,2013-02-27 07:40:00,
2013-02-26 23:50:00,29.1,23.7,30.03,WSW,258,0.0,0.0,80,0.00,,,0.00,0,Wunderground v.1.15,2013-02-27 07:50:00,